Tiempo cada hora Musiivka

Hoy, 24 Octubre, Sábado

Tiempo Temperatura Precipitaciones Viento Presión Humedad
00:00 +15°C° 0 mm 4 mps 752 mmHg 70%
01:00 +15°C° 0 mm 4 mps 752 mmHg 75%
02:00 +14°C° 0 mm 4 mps 752 mmHg 80%
03:00 +14°C° 0 mm 4 mps 752 mmHg 84%
04:00 +14°C° 0 mm 4 mps 752 mmHg 86%
05:00 +14°C° 0 mm 4 mps 752 mmHg 87%
06:00 +13°C° 0 mm 4 mps 751 mmHg 88%
07:00 +14°C° 0 mm 4 mps 752 mmHg 87%
08:00 +14°C° 0 mm 4 mps 752 mmHg 86%
09:00 +14°C° 0 mm 4 mps 752 mmHg 84%
10:00 +15°C° 0 mm 4 mps 752 mmHg 78%
11:00 +17°C° 0 mm 4 mps 752 mmHg 72%
12:00 +17°C° 0 mm 5 mps 752 mmHg 67%
13:00 +17°C° 0.1 mm 4 mps 752 mmHg 68%
14:00 +17°C° 0.1 mm 3 mps 752 mmHg 70%
15:00 +16°C° 0.1 mm 3 mps 752 mmHg 71%
16:00 +16°C° 0 mm 2 mps 752 mmHg 74%
17:00 +15°C° 0 mm 2 mps 752 mmHg 76%
18:00 +15°C° 0 mm 1 mps 752 mmHg 78%
19:00 +14°C° 0 mm 1 mps 752 mmHg 80%
20:00 +14°C° 0 mm 1 mps 752 mmHg 81%
21:00 +13°C° 0 mm 1 mps 752 mmHg 83%
22:00 +13°C° 0 mm 1 mps 751 mmHg 83%
23:00 +13°C° 0 mm 2 mps 751 mmHg 83%

Mañana, 25 Octubre, Domingo

Tiempo Temperatura Precipitaciones Viento Presión Humedad
00:00 +13°C° 0 mm 2 mps 751 mmHg 83%
01:00 +13°C° 0 mm 2 mps 751 mmHg 85%
02:00 +12°C° 0 mm 3 mps 751 mmHg 87%
03:00 +12°C° 0 mm 3 mps 751 mmHg 88%
04:00 +11°C° 0 mm 3 mps 751 mmHg 86%
05:00 +11°C° 0 mm 3 mps 751 mmHg 84%
06:00 +10°C° 0 mm 4 mps 751 mmHg 82%
07:00 +11°C° 0 mm 4 mps 751 mmHg 77%
08:00 +12°C° 0 mm 4 mps 752 mmHg 73%
09:00 +13°C° 0 mm 4 mps 752 mmHg 68%
10:00 +14°C° 0 mm 5 mps 752 mmHg 64%
11:00 +16°C° 0 mm 5 mps 752 mmHg 61%
12:00 +17°C° 0 mm 6 mps 753 mmHg 57%
13:00 +17°C° 0 mm 6 mps 753 mmHg 55%
14:00 +17°C° 0 mm 5 mps 753 mmHg 54%
15:00 +17°C° 0 mm 5 mps 754 mmHg 52%
16:00 +15°C° 0 mm 4 mps 754 mmHg 58%
17:00 +13°C° 0 mm 3 mps 754 mmHg 64%
18:00 +11°C° 0 mm 3 mps 754 mmHg 70%
19:00 +12°C° 0 mm 2 mps 755 mmHg 72%
20:00 +10°C° 0 mm 2 mps 756 mmHg 75%
21:00 +9°C° 0 mm 2 mps 757 mmHg 77%
22:00 +9°C° 0 mm 2 mps 757 mmHg 79%
23:00 +8°C° 0 mm 2 mps 757 mmHg 81%

Pasado mañana, 26 Octubre, Lunes

Tiempo Temperatura Precipitaciones Viento Presión Humedad
00:00 +9°C° 0 mm 1 mps 757 mmHg 83%
01:00 +9°C° 0 mm 1 mps 757 mmHg 84%
02:00 +8°C° 0 mm 1 mps 758 mmHg 85%
03:00 +8°C° 0 mm 1 mps 758 mmHg 86%
04:00 +8°C° 0 mm 1 mps 758 mmHg 86%
05:00 +7°C° 0 mm 1 mps 758 mmHg 87%
06:00 +7°C° 0 mm 1 mps 759 mmHg 87%
07:00 +8°C° 0 mm 1 mps 759 mmHg 82%
08:00 +9°C° 0 mm 1 mps 759 mmHg 77%
09:00 +10°C° 0 mm 1 mps 759 mmHg 72%
10:00 +12°C° 0 mm 2 mps 759 mmHg 65%
11:00 +13°C° 0 mm 2 mps 759 mmHg 59%
12:00 +15°C° 0 mm 2 mps 759 mmHg 52%
13:00 +15°C° 0 mm 2 mps 759 mmHg 50%
14:00 +16°C° 0 mm 2 mps 759 mmHg 48%
15:00 +16°C° 0 mm 2 mps 759 mmHg 46%
16:00 +13°C° 0 mm 3 mps 759 mmHg 51%
17:00 +12°C° 0 mm 3 mps 759 mmHg 55%
18:00 +10°C° 0 mm 3 mps 759 mmHg 60%
19:00 +10°C° 0 mm 3 mps 759 mmHg 63%
20:00 +9°C° 0 mm 3 mps 759 mmHg 66%
21:00 +9°C° 0 mm 3 mps 760 mmHg 69%
22:00 +8°C° 0 mm 3 mps 760 mmHg 69%
23:00 +8°C° 0 mm 3 mps 760 mmHg 70%

, 27 Octubre, Martes

Tiempo Temperatura Precipitaciones Viento Presión Humedad
00:00 +8°C° 0 mm 3 mps 760 mmHg 70%
01:00 +8°C° 0 mm 3 mps 760 mmHg 71%
02:00 +7°C° 0 mm 3 mps 760 mmHg 72%
03:00 +7°C° 0 mm 3 mps 760 mmHg 74%
04:00 +7°C° 0 mm 3 mps 760 mmHg 74%
05:00 +7°C° 0 mm 3 mps 760 mmHg 74%
06:00 +7°C° 0 mm 3 mps 760 mmHg 74%
07:00 +7°C° 0 mm 4 mps 761 mmHg 69%
08:00 +7°C° 0 mm 4 mps 761 mmHg 64%
09:00 +8°C° 0 mm 5 mps 761 mmHg 59%
10:00 +10°C° 0 mm 5 mps 761 mmHg 55%
11:00 +12°C° 0 mm 5 mps 761 mmHg 50%
12:00 +13°C° 0 mm 5 mps 761 mmHg 46%
13:00 +14°C° 0 mm 5 mps 761 mmHg 45%
14:00 +14°C° 0 mm 5 mps 761 mmHg 43%
15:00 +14°C° 0 mm 5 mps 761 mmHg 42%
16:00 +13°C° 0 mm 5 mps 761 mmHg 45%
17:00 +11°C° 0 mm 4 mps 761 mmHg 49%
18:00 +10°C° 0 mm 4 mps 761 mmHg 52%
19:00 +8°C° 0 mm 4 mps 762 mmHg 56%
20:00 +8°C° 0 mm 4 mps 762 mmHg 59%
21:00 +7°C° 0 mm 4 mps 762 mmHg 63%
22:00 +7°C° 0 mm 5 mps 762 mmHg 67%
23:00 +6°C° 0 mm 5 mps 762 mmHg 70%

27 Octubre, Martes

Tiempo Temperatura Precipitaciones Viento Presión Humedad
00:00 +8°C° 0 mm 3 mps 760 mmHg 70%
01:00 +8°C° 0 mm 3 mps 760 mmHg 71%
02:00 +7°C° 0 mm 3 mps 760 mmHg 72%
03:00 +7°C° 0 mm 3 mps 760 mmHg 74%
04:00 +7°C° 0 mm 3 mps 760 mmHg 74%
05:00 +7°C° 0 mm 3 mps 760 mmHg 74%
06:00 +7°C° 0 mm 3 mps 760 mmHg 74%
07:00 +7°C° 0 mm 4 mps 761 mmHg 69%
08:00 +7°C° 0 mm 4 mps 761 mmHg 64%
09:00 +8°C° 0 mm 5 mps 761 mmHg 59%
10:00 +10°C° 0 mm 5 mps 761 mmHg 55%
11:00 +12°C° 0 mm 5 mps 761 mmHg 50%
12:00 +13°C° 0 mm 5 mps 761 mmHg 46%
13:00 +14°C° 0 mm 5 mps 761 mmHg 45%
14:00 +14°C° 0 mm 5 mps 761 mmHg 43%
15:00 +14°C° 0 mm 5 mps 761 mmHg 42%
16:00 +13°C° 0 mm 5 mps 761 mmHg 45%
17:00 +11°C° 0 mm 4 mps 761 mmHg 49%
18:00 +10°C° 0 mm 4 mps 761 mmHg 52%
19:00 +8°C° 0 mm 4 mps 762 mmHg 56%
20:00 +8°C° 0 mm 4 mps 762 mmHg 59%
21:00 +7°C° 0 mm 4 mps 762 mmHg 63%
22:00 +7°C° 0 mm 5 mps 762 mmHg 67%
23:00 +6°C° 0 mm 5 mps 762 mmHg 70%

28 Octubre, Miércoles

Tiempo Temperatura Precipitaciones Viento Presión Humedad
00:00 +6°C° 0 mm 5 mps 762 mmHg 74%
01:00 +5°C° 0 mm 5 mps 762 mmHg 75%
02:00 +5°C° 0 mm 5 mps 762 mmHg 76%
03:00 +3°C° 0 mm 5 mps 762 mmHg 77%
04:00 +3°C° 0 mm 5 mps 762 mmHg 76%
05:00 +2°C° 0 mm 5 mps 762 mmHg 75%
06:00 +2°C° 0 mm 5 mps 762 mmHg 75%
07:00 +3°C° 0 mm 6 mps 763 mmHg 68%
08:00 +4°C° 0 mm 6 mps 763 mmHg 61%
09:00 +4°C° 0 mm 7 mps 763 mmHg 55%
10:00 +6°C° 0 mm 7 mps 763 mmHg 47%
11:00 +9°C° 0 mm 7 mps 762 mmHg 40%
12:00 +11°C° 0 mm 8 mps 762 mmHg 32%
13:00 +11°C° 0 mm 8 mps 762 mmHg 28%
14:00 +11°C° 0 mm 8 mps 762 mmHg 24%
15:00 +12°C° 0 mm 8 mps 761 mmHg 20%
16:00 +10°C° 0 mm 7 mps 762 mmHg 22%
17:00 +9°C° 0 mm 6 mps 762 mmHg 24%
18:00 +7°C° 0 mm 6 mps 762 mmHg 26%
19:00 +7°C° 0 mm 6 mps 762 mmHg 28%
20:00 +5°C° 0 mm 6 mps 762 mmHg 31%
21:00 +4°C° 0 mm 6 mps 762 mmHg 33%
22:00 +4°C° 0 mm 6 mps 762 mmHg 37%
23:00 +4°C° 0 mm 6 mps 761 mmHg 40%

29 Octubre, Jueves

Tiempo Temperatura Precipitaciones Viento Presión Humedad
00:00 +4°C° 0 mm 6 mps 761 mmHg 43%
01:00 +4°C° 0 mm 6 mps 761 mmHg 46%
02:00 +3°C° 0 mm 6 mps 761 mmHg 50%
03:00 +3°C° 0 mm 6 mps 761 mmHg 54%
04:00 +3°C° 0 mm 6 mps 761 mmHg 58%
05:00 +3°C° 0 mm 6 mps 761 mmHg 62%
06:00 +2°C° 0 mm 6 mps 761 mmHg 66%
07:00 +3°C° 0 mm 7 mps 760 mmHg 66%
08:00 +4°C° 0 mm 7 mps 760 mmHg 66%
09:00 +5°C° 0 mm 8 mps 760 mmHg 66%
10:00 +6°C° 0 mm 8 mps 760 mmHg 60%
11:00 +9°C° 0 mm 8 mps 760 mmHg 55%
12:00 +10°C° 0 mm 8 mps 760 mmHg 50%
13:00 +11°C° 0 mm 8 mps 759 mmHg 48%
14:00 +11°C° 0 mm 8 mps 759 mmHg 46%
15:00 +12°C° 0 mm 7 mps 759 mmHg 45%
16:00 +11°C° 0 mm 7 mps 759 mmHg 47%
17:00 +10°C° 0 mm 6 mps 759 mmHg 49%
18:00 +9°C° 0 mm 5 mps 759 mmHg 51%
19:00 +9°C° 0 mm 5 mps 759 mmHg 50%
20:00 +8°C° 0 mm 5 mps 758 mmHg 49%
21:00 +8°C° 0 mm 5 mps 758 mmHg 48%
22:00 +8°C° 0 mm 5 mps 758 mmHg 49%
23:00 +8°C° 0 mm 5 mps 758 mmHg 51%
Mostrar más

Necesitamos Su Consentimiento

Meteoprog y nuestros Proveedores de Servicios pueden almacenar y acceder a sus datos personales como cookies, identificadores de dispositivo u otras tecnologías similares de su dispositivo y procesar dichos datos para personalizar contenido y anuncios, además de ofrecer funciones de redes sociales y analizar el tráfico.

  • Almacenar y/o acceder a información en su dispositivo

    Se puede almacenar o acceder a cookies, identificadores de dispositivo u otra información de su dispositivo para los fines anteriormente indicados.

  • Anuncios y contenido personalizados, medición de anuncios y contenido, percepciones del público, y desarrollo de productos

    Los anuncios y el contenido pueden personalizarse en base a su perfil. Se pueden añadir más datos para personalizar mejor los anuncios y contenidos. Se puede medir el rendimiento de los anuncios y contenidos. Se puede obtener la percepción sobre el público que ha visto los anuncios y contenidos. Dichos datos pueden usarse para desarrollar o mejorar la experiencia del usuario, sistemas y software.

Al hacer clic en ‘Estoy De Acuerdo’ usted permitirá el uso de las cookies, identificadores de dispositivo, balizas web u otras tecnologías similares indicadas. Su configuración puede cambiarse desde el navegador de su dispositivo.

Para ciertos fines, los intereses legítimos pueden ser considerados por encima del consentimiento. Puede leer más sobre ello en nuestra Política de Privacidad y Cookies.